sat.trackr.live / text

‹ back to catalog

STARLINK-35952

NORAD 66520 · 2025-265E

PAYLOAD ACTIVE UNKNOWN

§ Identity

Operator
Country
US
Launch date
2025-11-19
Launch site
AFETR
Launch vehicle
Mass (kg)
RCS (m²)

Purposes: comms

External: N2YO · Heavens-Above · Gunter

§ Orbital elements

Epoch: 2026-09-20T16:30:52.490592Z

Period
94.27 min
Inclination
42.9992°
Eccentricity
0.0001169
Mean motion
15.27583606 rev/d
Perigee alt
482.2 km
Apogee alt
483.8 km
Semi-major
6,861.2 km
B*
2.7469e-4
RAAN
256.8875°
Arg perigee
268.6755°
Mean anomaly
91.3963°
Rev number
4,693

§ Raw data

STARLINK-359521 66520U 25265E   26263.68810753  .00007305  00000+0  27469-3 0  99912 66520  42.9992 256.8875 0001169 268.6755  91.3963 15.27583606 46939

JSON: /api/v1/satellites/66520 · /tle

For live sub-satellite position, see the globe view (requires WebGL).

§ Visibility from observer

Set your observer location to see the next 7 days of passes ≥ 10°. The values pass through the URL so the page stays shareable.

No JS? Fill the form by hand. The geolocation button needs JavaScript.